This is the latest recevied weather packets stored in our database for station/object BRIVER. If no packets are shown the sender has not sent any weather packets the latest 1 day(s).
| Time | Temp. | Humidity | Pressure | Rain* | Wind** | Luminosity | Snow |
|---|---|---|---|---|---|---|---|
| 1778006070 | 11.11° C | 86% | 1013 hPa | 0 mm | 1.34 m/s, 310° | - | - |
| 1778005829 | 11.11° C | 85% | 1013.1 hPa | 0 mm | 0.89 m/s, 305° | - | - |
| 1778005529 | 11.67° C | 85% | 1013 hPa | 0 mm | 0.89 m/s, 312° | - | - |
| 1778005230 | 12.22° C | 85% | 1013 hPa | 0 mm | 0.89 m/s, 319° | - | - |
| 1778004991 | 12.22° C | 86% | 1013 hPa | 0 mm | 0.89 m/s, 321° | - | - |
| 1778004929 | 12.22° C | 86% | 1012.9 hPa | 0 mm | 0.89 m/s, 5° | - | - |
| 1778004629 | 12.22° C | 89% | 1012.8 hPa | 0 mm | 0.89 m/s, 46° | - | - |
| 1778004450 | 12.22° C | 89% | 1012.7 hPa | 0 mm | 0.89 m/s, 144° | - | - |
| 1778004329 | 12.22° C | 90% | 1012.7 hPa | 0 mm | 0.89 m/s, 163° | - | - |
| 1778004029 | 12.22° C | 92% | 1012.7 hPa | 0 mm | 0.89 m/s, 311° | - | - |
| 1778003910 | 11.67° C | 93% | 1012.8 hPa | 0 mm | 0.89 m/s, 17° | - | - |
| 1778003730 | 11.67° C | 90% | 1012.8 hPa | 0 mm | 0.89 m/s, 130° | - | - |
| 1778003429 | 11.67° C | 91% | 1012.8 hPa | 0 mm | 1.34 m/s, 74° | - | - |
| 1778003370 | 11.67° C | 92% | 1012.7 hPa | 0 mm | 1.34 m/s, 48° | - | - |
| 1778003129 | 11.67° C | 93% | 1012.7 hPa | 0 mm | 1.34 m/s, 135° | - | - |
| 1778002830 | 11.67° C | 91% | 1012.7 hPa | 0 mm | 1.34 m/s, 73° | - | - |
| 1778002530 | 11.11° C | 97% | 1012.7 hPa | 0 mm | 0.89 m/s, 65° | - | - |
| 1778002291 | 10.56° C | 98% | 1012.7 hPa | 0 mm | 0.89 m/s, 71° | - | - |
| 1778002230 | 10.56° C | 98% | 1012.7 hPa | 0 mm | 0.89 m/s, 43° | - | - |
| 1778001930 | 10° C | 97% | 1012.6 hPa | 0 mm | 0.89 m/s, 25° | - | - |
| 1778001751 | 10° C | 98% | 1012.7 hPa | 0 mm | 0.89 m/s, 297° | - | - |
| 1778001629 | 10° C | 99% | 1012.7 hPa | 0 mm | 0.89 m/s, 223° | - | - |
| 1778001330 | 10° C | 99% | 1012.7 hPa | 0 mm | 0.45 m/s, 0° | - | - |
| 1778001211 | 10° C | 99% | 1012.7 hPa | 0 mm | 0.89 m/s, 315° | - | - |
| 1778001030 | 10° C | 99% | 1012.7 hPa | 0 mm | 0.45 m/s, 321° | - | - |
* Rain latest hour (hover to see other rain measurements)
** Current wind speed in m/s (hover to see current wind gust speed)